This demonstration page uses our WeatherBlox Daily Observations layout. Learn more.

Left ArrowRight Arrow

39.92423, -83.80882

Hourly Observations for July 31, 2020

Temp ( °F °C ) Dew Point ( °F °C ) Humidity (%) Winds ( mph kmh ) Pressure ( in mb ) Visibility ( mi km ) Precip ( " mm )
12:16 am 00:16 Cloudy 66 19 66 19 100 100 NE 8 13 29.85 1011 10 16 N/A
12:34 am 00:34 Cloudy 68 20 68 20 100 100 N 8 13 29.84 1011 10 16 N/A
12:56 am 00:56 Cloudy 68 20 68 20 100 100 NE 10 17 29.85 1011 10 16 N/A
1:31 am 01:31 Cloudy 70 21 70 21 100 100 ENE 9 15 29.81 1009 10 16 N/A
1:56 am 01:56 Cloudy 68 20 68 20 100 100 NE 12 19 29.82 1010 10 16 N/A
2:56 am 02:56 Cloudy 68 20 68 20 100 100 NE 10 17 29.82 1010 10 16 N/A
3:29 am 03:29 Cloudy 68 20 68 20 100 100 NNE 8 13 29.81 1010 10 16 N/A
3:39 am 03:39 Mostly Cloudy 68 20 68 20 100 100 NE 13 20 29.80 1009 10 16 N/A
3:56 am 03:56 Mostly Cloudy 68 20 68 20 100 100 NE 10 17 29.81 1010 10 16 N/A
4:03 am 04:03 Partly Cloudy 68 20 68 20 100 100 NE 10 17 29.80 1009 10 16 N/A
4:56 am 04:56 Cloudy 68 20 68 20 100 100 NE 9 15 29.83 1010 10 16 N/A
5:56 am 05:56 Cloudy 67 19.4 66 18.9 97 97 NE 9 15 29.83 1010 10 16 N/A
6:56 am 06:56 Mostly Sunny 66 18.9 64 17.8 93 93 NE 9 15 29.86 1011 10 16 N/A
7:56 am 07:56 Mostly Cloudy 69 20.6 65 18.3 87 87 NE 10 17 29.87 1012 10 16 N/A
8:56 am 08:56 Sunny 71 21.7 65 18.3 81 81 NE 13 20 29.88 1012 10 16 N/A
9:56 am 09:56 Sunny 73 22.8 65 18.3 76 76 undefined N/A 29.89 1012 10 16 N/A
10:56 am 10:56 Mostly Cloudy 74 23.3 65 18.3 74 74 ENE 9 15 29.90 1013 10 16 N/A
11:56 am 11:56 Cloudy 76 24.4 63 17.2 64 64 VRB 3 6 29.91 1013 10 16 N/A
12:56 pm 12:56 Sunny 79 26.1 65 18.3 62 62 ENE 8 13 29.90 1013 10 16 N/A
1:56 pm 13:56 Sunny 81 27.2 66 18.9 61 61 ENE 10 17 29.89 1012 10 16 N/A
2:56 pm 14:56 Sunny 81 27.2 63 17.2 54 54 ENE 9 15 29.89 1012 10 16 N/A
3:56 pm 15:56 Partly Cloudy 81 27.2 63 17.2 54 54 NE 10 17 29.88 1012 10 16 N/A
4:56 pm 16:56 Mostly Cloudy 80 26.7 65 18.3 60 60 N N/A 29.88 1012 10 16 N/A
5:56 pm 17:56 Cloudy 79 26.1 66 18.9 65 65 ENE 9 15 29.88 1012 10 16 N/A
6:56 pm 18:56 Mostly Cloudy 78 25.6 65 18.3 64 64 N 9 15 29.87 1012 10 16 N/A
7:56 pm 19:56 Cloudy 78 25.6 64 17.8 62 62 NNE 8 13 29.88 1012 10 16 N/A
8:56 pm 20:56 Mostly Cloudy 75 23.9 61 16.1 62 62 NE 10 17 29.88 1012 10 16 N/A
9:56 pm 21:56 Cloudy 74 23.3 61 16.1 64 64 NE 8 13 29.90 1013 10 16 N/A
10:56 pm 22:56 Cloudy 72 22.2 63 17.2 73 73 ENE 7 11 29.91 1013 10 16 N/A
11:56 pm 23:56 Cloudy 72 22.2 62 16.7 71 71 NE 7 11 29.89 1012 10 16 N/A

Powered by AerisWeather